Location: Biltmore Gardens
(41.6070°N, 83.4666°W)
Time: 15:19:51
(UTC+00:00)

Cosmos 1242 Rocket - Pass Details

Date: 14 July 2020
Orbit: 448 x 487 km, 81.2° (Epoch: 12 August)

Event Time Altitude Azimuth Distance (km) Brightness Sun altitude
Rises 09:34:28 0° 331° (NNW) 2,463 6.3 -6.7°
Reaches altitude 10° 09:37:10 10° 308° (NW) 1,588 5.0 -6.3°
Maximum altitude 09:39:15 15° 270° (W) 1,299 4.3 -6.0°
Drops below altitude 10° 09:41:20 10° 233° (SW) 1,588 4.5 -5.7°
Enters shadow 09:42:17 - 222° (SW) 1,859 4.9 -5.6°
